Weather History for KMKJ - December, 2012

Change the Weather History Date:

Saturday, December 8, 2012

  Actual Average (KBLF) Record (KBLF)
Temperature  
Mean Temperature 50 °F 39 °F  
Max Temperature 61 °F 47 °F 73 °F (1978)
Min Temperature 40 °F 31 °F 9 °F (2006)
Degree Days  
Heating Degree Days 14 26  
Month to date heating degree days 199  
Since 1 July heating degree days 1102  
Cooling Degree Days 0 0  
Month to date cooling degree days 0  
Year to date cooling degree days 853  
Moisture  
Dew Point 49 °F    
Average Humidity 92    
Maximum Humidity 100    
Minimum Humidity 69    
Precipitation  
Precipitation 0.00 in 0.10 in 1.12 in (1998)
Month to date precipitation 0.78  
Year to date precipitation 37.50  
Snow  
Snow 0.00 in - - ()
Month to date snowfall  
Since 1 July snowfall  
Snow Depth -    
Sea Level Pressure  
Sea Level Pressure 30.02 in    
Wind  
Wind Speed 5 mph (WSW)    
Max Wind Speed 15 mph    
Max Gust Speed 23 mph    
Visibility 6 miles    
Events Fog , Rain    
T = Trace of Precipitation, MM = Missing Value Source: NWS Daily Summary

Daily Weather History Graph

Daily Weather History Graph

Search for Another Location

Airport or City:

Trip Planner

Search our weather history database for the weather conditions in past years. The results will help you decide how hot, cold, wet, or windy it might be!

Date:

Astronomy

Dec. 08, 2012 Rise Set
Actual Time 7:26 AM EST 5:08 PM EST
Civil Twilight 6:57 AM EST 5:37 PM EST
Nautical Twilight 6:25 AM EST 6:09 PM EST
Astronomical Twilight 5:53 AM EST 6:41 PM EST
Moon 1:55 AM EST (12/8) 1:32 PM EST (12/8)
Length of Visible Light 10h 40m
Length of Day
9h 42m
Waning Crescent, 28% of the Moon is Illuminated
Dec 8
Waning Crescent
Dec 13
New
Dec 20
First Quarter
Dec 28
Full
Jan 4
Last Quarter

Hourly Weather History & Observations

Time (EST) Temp. Windchill Dew Point Humidity Pressure Visibility Wind Dir Wind Speed Gust Speed Precip Events Conditions
12:15 AM 42.1 °F - 41.9 °F 99% 30.02 in 3.0 mi Calm Calm - N/A   Overcast
12:35 AM 41.7 °F - 41.5 °F 99% 30.01 in 0.5 mi Calm Calm - N/A Fog Fog
12:55 AM 41.9 °F - 41.5 °F 99% 30.01 in 0.2 mi Calm Calm - N/A Fog Fog
1:15 AM 40.8 °F - 40.5 °F 99% 30.01 in 0.2 mi Calm Calm - N/A Fog Fog
1:35 AM 41.2 °F - 41.0 °F 99% 30.00 in 0.2 mi Calm Calm - N/A Fog Fog
1:55 AM 41.0 °F - 40.5 °F 98% 30.00 in 0.2 mi Calm Calm - N/A Fog Fog
2:15 AM 40.8 °F - 40.6 °F 99% 30.00 in 0.2 mi Calm Calm - N/A Fog Fog
2:35 AM 41.0 °F - 40.6 °F 99% 30.00 in 0.2 mi Calm Calm - N/A Fog Fog
2:55 AM 42.1 °F - 41.7 °F 99% 30.00 in 0.2 mi Calm Calm - N/A Fog Fog
3:15 AM 42.1 °F 40.2 °F 41.7 °F 99% 30.00 in 0.2 mi WSW 3.5 mph - N/A Fog Fog
3:55 AM 47.1 °F - 46.9 °F 99% 30.00 in 7.0 mi WSW 4.6 mph - N/A   Overcast
4:15 AM 46.8 °F - 46.4 °F 99% 30.00 in 7.0 mi WSW 5.8 mph - N/A   Overcast
4:35 AM 48.4 °F - 48.2 °F 99% 30.00 in 10.0 mi WSW 8.1 mph - N/A   Overcast
4:55 AM 49.1 °F - 48.7 °F 99% 30.00 in 10.0 mi WSW 9.2 mph - N/A   Overcast
5:15 AM 49.1 °F - 49.1 °F 100% 30.00 in 10.0 mi WSW 9.2 mph - N/A   Overcast
5:35 AM 49.6 °F - 49.5 °F 99% 30.00 in 10.0 mi West 6.9 mph - N/A   Overcast
6:15 AM 50.0 °F - 49.5 °F 98% 30.01 in 10.0 mi WSW 9.2 mph - N/A   Overcast
6:35 AM 50.4 °F - 49.8 °F 98% 30.01 in 10.0 mi WSW 9.2 mph - N/A   Overcast
6:55 AM 50.4 °F - 49.6 °F 97% 30.01 in 10.0 mi WSW 10.4 mph - N/A   Overcast
7:15 AM 50.7 °F - 50.0 °F 97% 30.02 in 10.0 mi WSW 8.1 mph - N/A   Overcast
7:35 AM 50.9 °F - 50.0 °F 97% 30.02 in 7.0 mi WSW 9.2 mph - N/A   Overcast
7:55 AM 51.1 °F - 50.4 °F 97% 30.02 in 7.0 mi WSW 8.1 mph - N/A   Overcast
8:15 AM 51.1 °F - 50.5 °F 98% 30.03 in 5.0 mi WSW 8.1 mph - N/A   Overcast
8:35 AM 51.1 °F - 50.9 °F 99% 30.03 in 4.0 mi WSW 8.1 mph - N/A   Overcast
8:55 AM 51.8 °F - 51.1 °F 97% 30.03 in 4.0 mi WSW 9.2 mph - N/A   Overcast
9:15 AM 51.8 °F - 51.6 °F 99% 30.03 in 4.0 mi West 10.4 mph - N/A   Overcast
9:35 AM 52.7 °F - 52.0 °F 97% 30.04 in 4.0 mi West 10.4 mph - N/A   Overcast
9:55 AM 53.1 °F - 52.7 °F 99% 30.05 in 3.0 mi WSW 10.4 mph - N/A   Overcast
10:15 AM 53.1 °F - 52.7 °F 99% 30.05 in 2.5 mi WSW 8.1 mph - N/A Rain Rain
10:35 AM 53.8 °F - 53.4 °F 99% 30.04 in 2.5 mi WSW 9.2 mph - N/A   Overcast
10:55 AM 53.8 °F - 53.4 °F 99% 30.04 in 3.0 mi WSW 11.5 mph - N/A   Overcast
11:15 AM 54.0 °F - 53.6 °F 99% 30.04 in 3.0 mi West 11.5 mph 18.4 mph N/A   Overcast
11:35 AM 54.0 °F - 53.6 °F 99% 30.03 in 3.0 mi WSW 10.4 mph - N/A   Overcast
11:55 AM 54.7 °F - 53.8 °F 97% 30.02 in 4.0 mi WSW 11.5 mph - N/A   Overcast
12:15 PM 55.8 °F - 54.1 °F 94% 30.02 in 4.0 mi WSW 12.7 mph 17.3 mph N/A   Overcast
12:35 PM 56.8 °F - 54.3 °F 91% 30.01 in 7.0 mi WSW 13.8 mph 18.4 mph N/A   Overcast
12:55 PM 56.3 °F - 54.0 °F 92% 30.01 in 7.0 mi WSW 13.8 mph - N/A   Overcast
1:15 PM 57.4 °F - 54.1 °F 89% 30.00 in 7.0 mi WSW 15.0 mph 20.7 mph N/A   Overcast
1:35 PM 59.0 °F - 53.6 °F 82% 30.00 in 10.0 mi West 12.7 mph - N/A   Overcast
1:55 PM 60.8 °F - 53.8 °F 78% 29.99 in 10.0 mi West 15.0 mph 20.7 mph N/A   Mostly Cloudy
2:15 PM 59.9 °F - 52.5 °F 77% 30.00 in 10.0 mi West 15.0 mph 20.7 mph N/A   Mostly Cloudy
2:35 PM 60.6 °F - 52.0 °F 73% 29.99 in 10.0 mi West 15.0 mph 20.7 mph N/A   Mostly Cloudy
2:55 PM 61.5 °F - 51.8 °F 70% 29.99 in 10.0 mi WSW 12.7 mph 23.0 mph N/A   Scattered Clouds
3:15 PM 61.7 °F - 52.0 °F 70% 30.00 in 10.0 mi WSW 9.2 mph 17.3 mph N/A   Scattered Clouds
3:35 PM 61.7 °F - 51.8 °F 70% 30.01 in 10.0 mi WSW 10.4 mph - N/A   Scattered Clouds
3:55 PM 61.5 °F - 51.4 °F 69% 30.01 in 10.0 mi WSW 10.4 mph - N/A   Scattered Clouds
4:15 PM 61.9 °F - 52.0 °F 70% 30.01 in 10.0 mi West 8.1 mph - N/A   Mostly Cloudy
4:35 PM 60.8 °F - 51.8 °F 72% 30.01 in 10.0 mi WSW 6.9 mph - N/A   Overcast
4:55 PM 60.8 °F - 51.8 °F 72% 30.02 in 10.0 mi WSW 5.8 mph - N/A   Overcast
5:15 PM 59.9 °F - 51.4 °F 74% 30.01 in 10.0 mi WSW 4.6 mph - N/A   Overcast
5:35 PM 59.0 °F - 51.3 °F 75% 30.02 in 10.0 mi West 5.8 mph - N/A   Scattered Clouds
5:55 PM 59.0 °F - 51.3 °F 75% 30.03 in 10.0 mi SW 3.5 mph - N/A   Mostly Cloudy
6:15 PM 58.8 °F - 51.4 °F 76% 30.03 in 10.0 mi SW 3.5 mph - N/A   Overcast
6:35 PM 57.9 °F - 51.3 °F 78% 30.03 in 10.0 mi Calm Calm - N/A   Mostly Cloudy
6:55 PM 55.9 °F - 51.1 °F 84% 30.04 in 10.0 mi Calm Calm - N/A   Scattered Clouds
7:15 PM 54.3 °F - 50.5 °F 87% 30.04 in 10.0 mi Calm Calm - N/A   Clear
7:35 PM 52.5 °F - 50.7 °F 94% 30.05 in 10.0 mi Calm Calm - N/A   Scattered Clouds
7:55 PM 51.8 °F - 50.2 °F 94% 30.05 in 10.0 mi Calm Calm - N/A   Mostly Cloudy
8:15 PM 51.4 °F - 49.8 °F 94% 30.05 in 10.0 mi Calm Calm - N/A   Overcast
9:15 PM 49.5 °F - 49.1 °F 99% 30.06 in 10.0 mi Calm Calm - N/A   Mostly Cloudy
9:35 PM 49.5 °F - 48.9 °F 98% 30.06 in 10.0 mi Calm Calm - N/A   Scattered Clouds
9:55 PM 48.4 °F - 47.8 °F 98% 30.06 in 7.0 mi Calm Calm - N/A   Clear
10:15 PM 48.4 °F - 48.0 °F 99% 30.06 in 7.0 mi Calm Calm - N/A   Clear
10:35 PM 47.5 °F - 47.3 °F 99% 30.07 in 4.0 mi Calm Calm - N/A   Clear
10:55 PM 45.5 °F - 45.3 °F 99% 30.07 in 1.8 mi Calm Calm - N/A   Mist
11:15 PM 46.4 °F - 46.2 °F 99% 30.07 in 4.0 mi Calm Calm - N/A   Clear
11:35 PM 46.2 °F - 45.9 °F 99% 30.07 in 2.5 mi Calm Calm - N/A   Clear
11:55 PM 44.8 °F - 44.6 °F 99% 30.07 in 1.2 mi Calm Calm - N/A   Mist